Location: Drocourt
(49.0571°N, 1.7669°E)
Time: 15:34:23
(UTC+00:00)

Vanguard 2 Rocket - Pass Details

Date: 22 April 2024
Orbit: 556 x 3304 km, 32.9° (Epoch: 22 May)

Event Time Altitude Azimuth Distance (km) Brightness Sun altitude
Rises 03:24:18 0° 276° (W) 7,293 11.1 -12.8°
Reaches altitude 10° 03:31:24 10° 262° (W) 6,171 10.6 -11.9°
Maximum altitude 03:42:46 20° 225° (SW) 4,889 10.0 -10.3°
Drops below altitude 10° 03:52:11 10° 186° (S) 4,958 10.3 -9.0°
Sets 03:57:00 0° 170° (S) 5,495 10.7 -8.3°
